Temp
75 73 72 75 77 77 77 78 78 77 78 78 78 79 80 79 78 78 77 76 76 75 75 76 76 76 75 75 75 75 75 75 75 75 75 75 75 75 74 75 76 75 75 76 76 75 77 77 77 77 77 77 77 76 76 76 76 78 76 76 75 76 74
75 75 73 73 76 76 77 78 78 78 78 78 79 79 80 79 78 78 77 77 77 76 76 76 76 76 76 75 75 74 75 75 75 76 76 75 76 75 76 75 76 76 75 76 76 76 77 77 77 77 77 77 77 76 77 77 76 76 76 75 75 75 76
75 75 74 73 75 76 77 77 78 78 79 79 79 79 79 78 78 78 77 77 76 76 77 76 76 76 76 75 75 74 75 75 75 75 75 75 75 76 76 76 75 76 76 76 76 77 78 77 77 77 77 77 78 77 76 76 76 76 76 75 76 76 74
73 74 75 74 76 77 78 78 78 78 79 80 80 80 79 78 79 79 78 78 77 77 76 77 77 77 76 75 75 75 75 75 76 76 76 76 76 76 75 75 75 76 76 76 77 78 80 78 77 76 79 77 77 77 77 77 77 76 76 75 75 75 74
73 75 74 72 73 75 76 77 77 78 79 81 81 80 80 80 79 79 78 79 78 77 78 78 78 78 77 77 77 76 76 76 75 76 76 76 76 76 75 76 75 76 76 77 77 77 77 77 77 76 77 77 77 77 77 76 77 77 76 75 75 75 75
73 73 74 73 73 74 76 77 78 79 79 80 80 79 80 80 79 79 79 78 78 79 78 78 78 78 76 77 78 77 76 76 76 76 76 76 75 75 75 76 76 76 77 76 77 77 77 77 77 77 77 78 78 78 77 77 77 77 76 76 76 76 76
74 74 74 74 73 73 75 76 78 79 80 81 81 81 80 79 78 79 79 79 79 78 78 77 78 78 77 77 77 77 75 76 75 76 76 76 76 76 76 76 77 77 77 76 77 77 77 77 77 77 78 78 78 78 77 76 77 77 76 75 75 75 75
75 74 75 75 74 74 75 76 77 78 78 79 79 79 78 79 78 78 78 79 79 78 78 78 78 78 77 77 77 77 76 76 76 76 76 76 76 76 76 76 76 77 77 77 78 78 78 78 78 77 78 78 78 78 78 77 76 77 77 76 75 75 77
75 75 75 74 73 73 73 74 76 76 76 76 78 78 78 78 77 77 77 78 78 77 77 78 79 79 78 77 77 76 77 77 77 76 76 77 77 77 77 77 77 77 77 78 78 78 78 79 79 77 77 78 77 77 77 77 77 77 77 76 76 76 77
72 71 69 69 68 67 67 67 68 70 73 75 76 77 78 78 77 77 77 77 77 77 77 78 78 78 77 77 77 78 77 76 77 77 77 77 77 77 78 79 78 78 78 79 79 79 78 79 79 78 77 77 77 76 77 76 77 77 77 77 76 76 76
67 67 67 67 67 67 69 69 69 69 70 72 74 76 77 77 77 77 77 77 77 77 77 77 78 78 77 77 76 77 77 77 77 77 77 77 78 78 79 79 80 79 79 79 79 80 79 78 78 77 77 78 77 77 76 77 77 77 77 77 77 77 77
66 67 67 66 67 68 68 69 70 69 71 72 72 72 73 74 77 78 77 77 77 77 76 76 76 77 77 77 77 76 76 76 76 77 77 78 78 79 80 80 80 80 80 80 80 80 80 79 78 78 77 77 78 78 78 77 77 77 78 78 78 77 77
65 64 65 66 67 67 68 68 68 69 69 68 68 69 69 69 69 69 70 70 70 70 71 73 74 76 76 76 76 75 75 74 75 75 76 78 79 80 80 80 81 81 81 81 81 80 80 80 79 78 78 78 78 79 78 78 78 77 77 78 78 77 77
65 64 64 66 67 67 67 67 68 68 68 68 68 69 69 70 69 69 69 70 72 73 72 71 70 70 73 74 74 74 74 74 75 75 76 77 77 78 80 81 81 81 81 81 80 81 81 81 80 79 79 79 79 79 78 78 77 77 77 77 78 77 77
64 64 64 65 65 65 66 66 67 67 68 68 68 69 69 70 70 70 71 73 73 73 73 72 72 71 70 71 71 72 72 73 73 74 75 76 75 76 78 79 79 80 80 80 80 82 81 82 81 80 78 79 78 78 78 79 78 78 78 77 77 77 77
64 64 65 65 65 66 66 67 67 67 67 67 69 69 70 70 70 71 71 71 72 72 72 72 72 71 71 71 69 70 71 71 71 72 74 74 75 74 75 77 77 78 78 79 79 80 80 79 80 80 79 78 78 77 79 79 80 80 81 80 79 77 78
63 64 65 65 65 65 65 66 67 67 67 68 69 69 70 70 71 71 71 71 71 71 72 72 71 72 71 71 71 72 71 70 69 69 69 70 70 70 71 72 75 75 76 77 78 78 78 78 78 79 80 79 79 78 78 79 80 79 73 74 78 79 76
63 64 65 65 66 66 66 66 66 66 67 67 68 69 69 69 69 70 70 71 71 71 71 71 71 71 71 71 71 72 71 70 71 69 69 69 69 70 70 70 70 71 72 74 74 75 76 77 78 78 79 80 79 78 78 78 76 68 69 70 72 79 76
63 64 64 65 65 65 65 65 66 66 67 68 68 68 69 69 69 69 69 70 70 71 71 71 71 71 71 71 72 71 70 71 71 70 70 69 70 69 70 70 70 70 71 71 72 73 73 74 75 76 75 78 77 78 77 75 65 66 68 68 69 73 78
64 63 64 64 65 65 65 65 66 66 67 67 67 69 69 69 69 69 70 70 70 70 69 69 69 69 69 69 70 70 70 70 70 70 69 69 69 69 69 69 69 69 70 71 72 71 71 71 72 73 73 75 75 75 73 69 63 63 65 65 66 70 75
63 63 63 64 65 65 65 66 66 66 67 67 68 68 69 68 69 69 69 69 69 69 68 68 68 68 68 69 69 69 69 70 70 69 70 69 69 69 69 69 69 70 71 70 71 71 71 71 71 71 72 73 73 71 68 65 59 60 62 62 63 65 73
64 64 64 64 64 64 65 66 66 67 67 68 68 68 69 68 69 69 68 69 68 68 68 68 67 67 68 67 68 68 68 69 70 70 70 70 70 70 70 70 70 70 71 71 70 70 69 70 71 71 70 70 70 69 64 62 58 58 59 59 61 65 71
64 64 65 66 66 66 67 68 67 67 68 67 68 68 68 68 69 68 68 68 67 68 68 67 66 66 67 67 67 68 68 69 69 69 69 70 70 70 69 69 69 70 71 70 70 70 69 69 69 70 70 70 68 66 63 62 59 56 57 57 59 65 69
65 65 65 66 67 67 67 67 68 68 68 67 67 68 68 68 68 68 67 67 67 67 67 67 66 67 67 67 67 67 68 69 69 68 68 68 68 68 69 69 69 69 70 70 70 69 69 69 69 69 69 69 66 66 64 63 60 55 55 55 56 64 69
64 65 65 65 65 65 65 66 66 66 66 66 65 66 67 67 67 67 66 66 66 67 66 66 66 67 67 67 68 67 67 68 68 67 67 67 67 68 68 68 69 70 71 71 71 70 69 71 70 68 67 67 67 70 64 63 62 56 54 55 55 62 67
62 64 64 65 65 65 65 66 66 65 65 64 65 66 67 66 66 66 65 65 66 66 66 66 67 67 68 68 68 68 68 68 69 68 67 67 67 68 68 68 68 68 69 69 69 69 69 70 69 67 64 65 64 64 63 62 61 59 54 54 55 58 66
63 64 63 64 65 66 64 65 64 64 64 64 65 66 66 66 65 64 65 65 65 65 66 66 66 67 66 67 68 68 68 68 68 68 68 68 68 68 67 67 67 67 67 66 66 68 68 67 65 63 63 63 63 63 64 64 62 61 53 52 53 54 61
63 64 66 67 67 66 65 65 64 64 64 65 66 65 65 64 63 63 63 64 64 65 66 67 67 67 66 66 67 67 67 68 68 69 68 68 68 66 66 67 67 67 66 65 64 63 63 63 63 62 62 63 63 63 63 66 66 63 58 53 52 53 56
62 63 62 63 64 67 66 63 63 63 63 65 65 66 66 65 64 64 64 63 63 66 66 67 67 67 67 67 67 67 67 67 68 68 68 67 67 66 65 66 66 66 66 65 64 63 62 62 62 62 62 62 62 62 62 62 64 63 62 56 52 52 54
62 63 64 66 66 66 66 64 64 63 64 65 65 65 65 64 63 63 63 62 63 65 67 66 66 67 68 68 67 66 66 67 66 66 66 67 66 65 64 64 64 65 65 65 64 63 62 62 62 62 61 61 61 61 61 61 61 63 63 61 55 53 53
62 62 63 63 64 65 65 64 63 64 64 64 64 63 63 64 64 64 63 62 64 64 65 66 66 67 66 65 65 65 65 65 64 63 63 63 63 63 63 62 63 62 62 63 63 63 62 62 63 62 62 61 61 61 60 60 59 59 62 64 62 57 55
61 62 62 63 62 64 64 64 65 64 64 64 64 64 63 63 64 63 62 64 65 64 65 66 66 66 65 66 65 64 66 64 64 63 63 63 62 61 60 62 62 62 60 62 62 61 61 61 61 61 61 60 60 59 59 60 59 59 59 60 62 62 59
60 60 60 61 62 63 61 62 62 62 62 61 61 63 63 62 63 62 62 63 64 65 66 67 66 65 64 63 64 64 64 63 62 61 61 61 62 61 60 60 59 61 61 59 60 62 63 63 63 62 61 60 58 58 58 57 57 57 57 57 58 58 61
60 60 60 60 60 61 60 60 60 60 60 60 59 61 62 62 62 61 61 62 63 64 66 66 65 62 62 64 64 64 64 63 65 60 58 58 57 57 58 59 58 57 56 55 57 60 60 62 62 61 60 57 57 56 57 55 54 54 53 54 54 55 57
59 60 60 60 61 61 59 59 59 59 60 59 59 59 59 59 60 61 60 60 60 62 64 65 65 63 62 63 64 65 66 62 61 59 56 54 53 51 50 50 53 54 54 54 52 55 58 58 58 59 57 57 56 57 57 56 55 54 50 50 48 49 51
57 59 58 60 60 59 60 59 59 59 59 58 58 59 59 59 59 59 61 60 59 60 62 62 61 60 60 61 62 63 63 62 61 59 58 56 54 53 53 50 45 46 51 53 54 50 47 52 56 57 57 54 53 54 55 54 55 48 42 41 41 42 43
58 57 57 58 58 57 58 58 59 58 58 57 58 59 60 59 59 60 60 60 59 60 59 59 60 60 59 61 60 61 61 60 58 57 55 56 55 55 55 53 52 44 44 47 48 45 42 42 44 48 52 57 53 50 49 49 44 40 40 40 40 40 39
57 57 58 57 58 57 58 58 59 58 58 57 58 58 58 59 60 59 60 59 59 59 58 58 59 58 58 58 60 63 60 56 58 58 56 54 53 54 53 52 51 52 47 43 44 43 40 39 40 40 42 44 50 56 52 45 40 38 39 40 40 40 40
MSLP
1012.38 1012.82 1012.86 1012.58 1012.82 1013.10 1013.30 1013.34 1013.46 1013.78 1013.90 1014.10 1014.22 1014.38 1014.58 1014.74 1014.90 1015.14 1015.50 1015.82 1016.10 1016.42 1016.50 1016.62 1016.82 1016.98 1017.14 1017.26 1017.34 1017.42 1017.50 1017.66 1017.78 1017.98 1018.10 1018.22 1018.22 1018.42 1018.70 1018.78 1018.90 1019.02 1019.10 1019.30 1019.30 1019.30 1019.14 1019.06 1019.18 1019.22 1019.26 1019.30 1019.38 1019.38 1019.38 1019.34 1019.38 1019.34 1019.34 1019.46 1019.54 1019.66 1019.70
1012.34 1012.54 1012.82 1012.58 1012.66 1012.86 1012.90 1012.94 1013.14 1013.42 1013.62 1013.78 1013.90 1014.10 1014.30 1014.50 1014.70 1015.02 1015.22 1015.46 1015.74 1016.02 1016.26 1016.46 1016.66 1016.78 1016.90 1017.06 1017.18 1017.30 1017.46 1017.58 1017.66 1017.74 1017.90 1018.06 1018.10 1018.22 1018.22 1018.46 1018.62 1018.78 1018.82 1018.86 1018.94 1018.94 1018.98 1019.02 1019.06 1019.18 1019.26 1019.26 1019.30 1019.26 1019.34 1019.30 1019.30 1019.30 1019.38 1019.46 1019.58 1019.66 1019.66
1012.02 1012.06 1012.46 1012.54 1012.50 1012.54 1012.66 1012.78 1012.90 1012.98 1013.22 1013.46 1013.66 1013.90 1014.14 1014.30 1014.38 1014.62 1014.94 1015.34 1015.70 1015.86 1016.02 1016.22 1016.38 1016.58 1016.66 1016.86 1017.14 1017.26 1017.30 1017.42 1017.58 1017.70 1017.90 1018.02 1018.10 1018.14 1018.14 1018.22 1018.38 1018.50 1018.54 1018.62 1018.74 1018.82 1018.78 1018.94 1018.94 1018.98 1019.10 1019.22 1019.22 1019.26 1019.30 1019.34 1019.26 1019.26 1019.30 1019.34 1019.46 1019.62 1019.66
1011.70 1011.78 1011.94 1012.10 1012.06 1012.06 1012.18 1012.38 1012.58 1012.74 1012.86 1012.98 1013.22 1013.50 1013.82 1014.02 1014.02 1014.22 1014.46 1014.86 1015.38 1015.70 1016.02 1016.02 1016.14 1016.38 1016.54 1016.78 1016.98 1017.14 1017.26 1017.26 1017.30 1017.46 1017.58 1017.66 1017.86 1017.90 1018.14 1018.26 1018.30 1018.34 1018.54 1018.62 1018.54 1018.62 1018.66 1018.74 1018.86 1018.90 1018.94 1019.10 1019.14 1019.14 1019.22 1019.26 1019.22 1019.22 1019.22 1019.34 1019.46 1019.50 1019.54
1011.50 1011.54 1011.82 1012.26 1012.22 1012.18 1012.26 1012.38 1012.50 1012.58 1012.74 1012.66 1012.78 1012.94 1013.22 1013.50 1013.78 1014.10 1014.34 1014.50 1014.82 1015.30 1015.34 1015.54 1015.74 1015.94 1016.18 1016.38 1016.62 1016.78 1016.98 1017.10 1017.22 1017.26 1017.38 1017.42 1017.54 1017.74 1018.02 1018.18 1018.22 1018.30 1018.30 1018.30 1018.38 1018.50 1018.58 1018.66 1018.74 1018.82 1018.86 1018.90 1019.02 1019.06 1019.14 1019.14 1019.18 1019.14 1019.22 1019.26 1019.46 1019.46 1019.54
1011.38 1011.54 1011.62 1011.98 1012.10 1011.98 1011.90 1011.98 1012.02 1012.14 1012.38 1012.62 1012.78 1013.02 1013.10 1013.34 1013.62 1013.98 1014.10 1014.42 1014.70 1014.82 1015.02 1015.38 1015.66 1015.86 1016.18 1016.22 1016.38 1016.62 1016.78 1016.90 1016.98 1017.10 1017.26 1017.38 1017.54 1017.74 1017.86 1017.90 1018.02 1018.10 1018.26 1018.26 1018.18 1018.26 1018.34 1018.46 1018.54 1018.62 1018.78 1018.78 1018.86 1018.94 1018.94 1019.06 1019.10 1019.10 1019.18 1019.26 1019.38 1019.42 1019.54
1010.98 1011.10 1011.26 1011.58 1011.86 1011.90 1011.86 1011.90 1011.98 1012.02 1012.06 1012.22 1012.38 1012.62 1012.94 1013.30 1013.62 1013.70 1013.86 1014.22 1014.42 1014.90 1015.18 1015.42 1015.46 1015.70 1015.94 1016.10 1016.34 1016.54 1016.82 1016.98 1017.06 1017.14 1017.18 1017.34 1017.38 1017.58 1017.66 1017.74 1017.78 1017.90 1017.90 1017.94 1018.14 1018.10 1018.26 1018.30 1018.38 1018.42 1018.50 1018.58 1018.74 1018.82 1018.86 1018.98 1019.06 1018.98 1019.10 1019.22 1019.34 1019.38 1019.42
1010.50 1010.90 1010.90 1011.14 1011.62 1011.74 1011.86 1011.90 1011.98 1011.98 1012.02 1012.18 1012.54 1012.82 1013.06 1013.10 1013.38 1013.70 1013.90 1013.94 1014.22 1014.58 1014.90 1015.14 1015.34 1015.50 1015.74 1015.94 1016.14 1016.42 1016.62 1016.78 1016.86 1016.98 1017.14 1017.34 1017.38 1017.50 1017.54 1017.66 1017.70 1017.66 1017.78 1018.02 1017.86 1017.90 1018.02 1018.10 1018.14 1018.18 1018.26 1018.42 1018.54 1018.58 1018.62 1018.74 1018.82 1018.86 1018.94 1019.18 1019.30 1019.38 1019.34
1010.34 1010.38 1010.74 1011.10 1011.62 1011.86 1012.06 1012.06 1012.02 1012.06 1012.18 1012.38 1012.42 1012.58 1012.78 1013.06 1013.30 1013.54 1013.70 1013.86 1014.06 1014.38 1014.70 1014.74 1014.94 1015.10 1015.38 1015.78 1016.06 1016.26 1016.42 1016.62 1016.86 1016.94 1017.14 1017.30 1017.34 1017.42 1017.38 1017.42 1017.46 1017.42 1017.70 1017.78 1017.74 1017.66 1017.74 1017.82 1017.90 1017.98 1018.06 1018.18 1018.30 1018.38 1018.50 1018.58 1018.66 1018.70 1018.82 1018.98 1019.10 1019.22 1019.22
1010.74 1010.94 1011.26 1011.62 1012.06 1012.46 1012.98 1013.34 1013.18 1013.30 1013.14 1012.62 1012.58 1012.70 1012.82 1012.90 1013.10 1013.30 1013.50 1013.66 1013.90 1014.22 1014.34 1014.54 1014.74 1014.98 1015.30 1015.66 1015.90 1016.06 1016.34 1016.62 1016.74 1016.94 1017.06 1017.22 1017.14 1017.22 1017.14 1017.10 1017.18 1017.18 1017.42 1017.46 1017.50 1017.62 1017.50 1017.54 1017.66 1017.78 1017.94 1018.06 1018.14 1018.22 1018.30 1018.42 1018.54 1018.58 1018.66 1018.74 1018.86 1018.98 1019.02
1011.10 1011.34 1011.58 1011.86 1012.14 1012.10 1011.98 1012.38 1012.62 1012.94 1012.98 1012.94 1012.62 1012.54 1012.62 1012.82 1013.06 1013.26 1013.50 1013.66 1013.94 1014.02 1014.06 1014.30 1014.46 1014.90 1015.26 1015.54 1015.90 1016.10 1016.30 1016.54 1016.62 1016.86 1016.94 1016.98 1016.94 1016.98 1016.90 1016.86 1016.90 1016.94 1017.14 1017.26 1017.42 1017.34 1017.42 1017.50 1017.50 1017.70 1017.82 1017.94 1018.02 1018.10 1018.18 1018.22 1018.30 1018.42 1018.50 1018.50 1018.54 1018.66 1018.78
1011.66 1011.70 1012.30 1012.70 1012.70 1012.74 1012.86 1012.58 1012.50 1012.54 1012.50 1012.82 1013.22 1013.50 1013.66 1013.54 1013.34 1013.14 1013.26 1013.58 1013.82 1014.18 1014.30 1014.34 1014.42 1014.78 1015.18 1015.46 1015.82 1016.02 1016.18 1016.26 1016.42 1016.58 1016.70 1016.78 1016.78 1016.70 1016.66 1016.62 1016.66 1016.74 1016.82 1016.90 1017.14 1017.14 1017.22 1017.42 1017.50 1017.50 1017.66 1017.66 1017.70 1017.74 1017.86 1017.90 1018.02 1018.14 1018.22 1018.26 1018.34 1018.46 1018.54
1012.46 1012.54 1012.62 1012.38 1012.02 1012.10 1012.30 1012.54 1012.62 1012.78 1013.10 1013.54 1013.70 1013.38 1013.70 1014.42 1014.94 1015.10 1015.14 1015.10 1015.18 1015.38 1015.58 1015.66 1015.50 1015.26 1015.38 1015.54 1015.74 1015.98 1016.14 1016.22 1016.26 1016.30 1016.46 1016.54 1016.58 1016.54 1016.54 1016.54 1016.50 1016.54 1016.62 1016.54 1016.74 1016.98 1017.14 1017.18 1017.30 1017.22 1017.30 1017.38 1017.46 1017.54 1017.62 1017.70 1017.78 1017.94 1018.02 1018.06 1018.14 1018.26 1018.42
1013.38 1013.30 1013.06 1012.42 1011.94 1012.18 1012.54 1012.50 1012.54 1012.58 1012.58 1012.66 1012.74 1012.82 1013.02 1013.22 1013.66 1014.30 1014.98 1015.14 1015.14 1015.10 1015.42 1015.82 1016.18 1016.26 1016.14 1015.94 1015.90 1015.94 1016.02 1016.06 1016.10 1016.22 1016.26 1016.30 1016.34 1016.38 1016.34 1016.30 1016.30 1016.34 1016.22 1016.30 1016.58 1016.74 1016.82 1017.02 1017.10 1017.06 1017.14 1017.22 1017.30 1017.26 1017.34 1017.50 1017.66 1017.74 1017.82 1017.90 1017.94 1018.10 1018.22
1013.14 1013.42 1013.54 1013.66 1013.50 1013.06 1012.74 1012.82 1012.78 1012.62 1012.74 1012.90 1012.82 1012.90 1013.06 1013.18 1013.50 1013.78 1013.90 1014.06 1014.22 1014.38 1014.26 1014.22 1014.78 1015.42 1015.78 1016.10 1016.30 1016.30 1016.18 1016.14 1016.14 1016.22 1016.30 1016.30 1016.34 1016.42 1016.34 1016.22 1016.18 1016.14 1016.10 1016.22 1016.34 1016.38 1016.46 1016.54 1016.66 1016.94 1017.14 1017.10 1017.18 1017.26 1017.30 1017.46 1017.54 1017.54 1017.62 1017.78 1017.90 1017.90 1018.10
1013.58 1013.06 1012.98 1013.22 1013.10 1013.02 1012.98 1012.94 1013.10 1013.50 1013.42 1013.10 1012.94 1012.94 1013.02 1013.14 1013.34 1013.50 1013.74 1013.94 1014.06 1014.22 1014.34 1014.46 1014.90 1015.26 1015.62 1015.86 1016.06 1016.30 1016.66 1017.10 1017.34 1017.14 1016.74 1016.50 1016.38 1016.34 1016.34 1016.30 1016.22 1016.18 1016.22 1016.26 1016.22 1016.26 1016.30 1016.42 1016.54 1016.70 1016.90 1017.10 1017.14 1017.18 1017.26 1017.34 1017.26 1017.22 1017.26 1017.30 1017.50 1017.70 1017.82
1014.14 1013.74 1013.66 1013.66 1013.50 1013.38 1013.30 1013.38 1013.26 1013.34 1013.62 1013.34 1012.90 1012.78 1012.86 1012.94 1013.02 1013.14 1013.38 1013.54 1013.66 1013.82 1014.02 1014.18 1014.74 1015.10 1015.42 1015.66 1015.70 1015.82 1016.06 1016.54 1017.14 1017.70 1018.18 1018.02 1017.54 1017.38 1017.14 1016.86 1016.38 1016.18 1016.22 1016.22 1016.18 1016.26 1016.26 1016.38 1016.58 1016.62 1016.62 1016.82 1017.02 1017.14 1017.18 1017.10 1017.02 1017.02 1017.10 1017.18 1017.26 1017.42 1017.70
1014.58 1014.22 1013.94 1013.82 1013.58 1013.58 1013.62 1013.66 1013.54 1013.58 1013.66 1013.46 1013.14 1013.06 1013.22 1013.46 1013.42 1013.42 1013.74 1013.62 1013.58 1013.66 1013.82 1014.22 1014.62 1014.94 1015.22 1015.38 1015.58 1015.78 1016.14 1016.34 1016.38 1016.66 1017.14 1017.50 1017.94 1017.74 1017.14 1016.94 1017.06 1017.06 1016.46 1016.18 1016.26 1016.18 1016.18 1016.38 1016.42 1016.42 1016.42 1016.54 1016.66 1016.86 1016.86 1016.86 1016.82 1016.94 1017.06 1017.14 1017.18 1017.18 1017.42
1014.62 1014.38 1014.18 1013.94 1013.86 1013.78 1013.86 1013.90 1013.82 1013.82 1013.50 1012.98 1012.78 1012.82 1012.90 1012.98 1013.34 1013.50 1013.62 1013.86 1013.58 1013.50 1013.98 1014.58 1014.98 1015.18 1015.34 1015.50 1015.70 1015.94 1016.02 1015.90 1016.02 1016.30 1016.50 1016.62 1016.82 1017.18 1016.78 1016.54 1016.62 1016.98 1017.18 1017.02 1016.50 1016.22 1016.34 1016.30 1016.34 1016.38 1016.34 1016.38 1016.62 1016.74 1016.70 1016.82 1017.14 1017.06 1017.02 1017.10 1017.14 1017.14 1017.18
1014.62 1014.66 1014.58 1014.42 1014.26 1014.14 1013.98 1013.70 1013.62 1013.78 1013.78 1013.46 1013.26 1013.18 1013.10 1013.18 1013.30 1013.50 1013.78 1014.02 1014.02 1014.06 1014.30 1014.86 1015.66 1015.98 1016.18 1016.14 1016.06 1016.10 1016.14 1016.10 1016.10 1016.50 1016.82 1016.90 1017.02 1017.54 1018.02 1017.38 1016.82 1016.50 1016.46 1016.54 1016.90 1016.90 1016.58 1016.50 1016.50 1016.46 1016.46 1016.42 1016.50 1016.62 1016.78 1017.10 1017.46 1017.42 1017.30 1017.18 1017.10 1017.06 1017.14
1014.78 1014.82 1014.82 1014.66 1014.50 1014.34 1014.18 1013.94 1013.78 1013.70 1013.78 1013.70 1013.58 1013.50 1013.50 1013.70 1013.74 1013.74 1013.86 1013.82 1013.94 1014.10 1014.46 1014.98 1015.50 1015.86 1016.14 1016.42 1016.34 1016.22 1016.18 1016.46 1016.86 1016.86 1016.66 1016.70 1016.74 1016.86 1017.02 1016.74 1016.42 1016.26 1016.18 1016.02 1016.18 1017.06 1017.54 1017.06 1016.78 1016.70 1016.66 1016.66 1016.66 1016.86 1017.22 1017.58 1017.70 1017.66 1017.58 1017.50 1017.30 1017.14 1017.10
1014.78 1014.82 1015.06 1015.02 1014.86 1014.70 1014.46 1014.22 1014.02 1013.78 1013.66 1013.46 1013.50 1013.66 1013.66 1013.82 1013.82 1013.98 1014.18 1013.94 1014.14 1014.58 1014.94 1015.30 1015.58 1015.70 1015.98 1016.18 1016.10 1016.14 1016.26 1016.42 1016.70 1016.62 1016.50 1016.50 1016.46 1016.50 1016.58 1016.74 1016.90 1016.98 1016.90 1016.70 1016.66 1016.82 1017.78 1018.66 1018.06 1017.18 1016.94 1016.86 1016.86 1017.06 1017.42 1017.66 1017.70 1017.66 1017.62 1017.58 1017.50 1017.46 1017.26
1014.66 1014.78 1014.90 1014.90 1014.74 1014.70 1014.46 1014.26 1014.22 1014.06 1013.90 1013.86 1013.74 1013.70 1013.78 1013.78 1013.74 1013.82 1014.10 1014.42 1014.66 1014.86 1015.06 1015.26 1015.58 1015.82 1015.90 1016.02 1016.02 1015.94 1016.02 1016.34 1016.82 1017.02 1016.86 1016.50 1016.46 1016.50 1016.58 1016.78 1016.86 1016.90 1016.98 1017.34 1017.50 1017.70 1017.94 1018.26 1018.50 1017.94 1017.26 1017.10 1017.10 1017.22 1017.46 1017.58 1017.74 1017.74 1017.70 1017.62 1017.50 1017.46 1017.42
1014.62 1014.82 1015.06 1015.06 1014.86 1014.78 1014.70 1014.54 1014.38 1014.30 1014.26 1014.34 1014.38 1014.26 1014.06 1013.98 1014.02 1014.26 1014.70 1015.06 1015.10 1015.26 1015.46 1015.54 1015.50 1015.54 1015.66 1015.90 1016.06 1016.06 1015.94 1016.02 1016.42 1016.90 1016.90 1016.50 1016.46 1016.46 1016.50 1016.54 1016.50 1016.54 1016.58 1017.18 1017.74 1018.18 1018.02 1017.78 1017.30 1017.30 1017.30 1017.26 1017.30 1017.30 1017.50 1017.78 1017.98 1018.02 1017.98 1017.98 1017.86 1017.66 1017.54
1014.70 1015.06 1015.34 1015.46 1015.54 1015.58 1015.34 1015.18 1015.02 1014.86 1014.82 1014.74 1014.86 1014.74 1014.50 1014.50 1014.58 1014.82 1015.26 1015.46 1015.58 1015.66 1015.86 1015.98 1015.94 1015.90 1015.86 1015.98 1016.06 1016.14 1016.10 1016.06 1016.18 1016.46 1016.50 1016.42 1016.34 1016.22 1016.34 1016.58 1016.74 1016.62 1016.54 1016.82 1017.30 1017.86 1017.54 1017.22 1017.22 1017.70 1017.58 1017.58 1017.50 1017.46 1017.66 1018.02 1018.14 1018.06 1017.98 1017.98 1017.94 1017.66 1017.50
1015.30 1015.42 1015.78 1015.70 1015.58 1015.50 1015.54 1015.38 1015.18 1015.18 1015.26 1015.30 1015.38 1015.18 1015.06 1014.94 1015.10 1015.38 1015.66 1015.82 1015.90 1016.10 1016.18 1016.26 1016.22 1016.10 1016.02 1016.02 1016.02 1015.98 1015.98 1015.98 1016.10 1016.18 1016.34 1016.42 1016.38 1016.26 1016.30 1016.34 1016.50 1016.82 1016.82 1016.90 1017.22 1017.42 1017.26 1017.22 1017.42 1017.62 1017.70 1017.70 1017.78 1017.86 1018.06 1018.30 1018.30 1018.06 1017.86 1017.78 1017.70 1017.66 1017.50
1015.46 1015.70 1016.18 1016.38 1016.22 1015.70 1015.62 1015.70 1015.78 1015.98 1016.14 1016.06 1015.78 1015.50 1015.46 1015.54 1015.66 1015.94 1016.06 1016.22 1016.42 1016.50 1016.38 1016.26 1016.26 1016.22 1016.14 1015.98 1015.94 1016.02 1016.10 1016.10 1016.18 1016.30 1016.26 1016.38 1016.50 1016.42 1016.42 1016.46 1016.62 1016.74 1016.90 1017.34 1017.38 1017.34 1017.38 1017.50 1017.58 1017.78 1017.90 1017.86 1017.90 1018.02 1018.14 1018.22 1018.26 1018.14 1018.06 1017.98 1017.82 1017.62 1017.34
1015.74 1015.86 1015.90 1016.10 1016.18 1016.34 1016.34 1016.18 1016.10 1016.18 1016.42 1016.42 1016.34 1016.22 1016.14 1016.10 1016.14 1016.30 1016.42 1016.62 1016.78 1016.66 1016.38 1016.34 1016.38 1016.30 1016.22 1016.22 1016.30 1016.30 1016.42 1016.46 1016.50 1016.66 1016.70 1016.62 1016.82 1017.02 1017.02 1016.86 1016.74 1016.78 1017.06 1017.42 1017.66 1017.70 1017.90 1017.94 1017.94 1017.94 1018.02 1018.02 1018.06 1018.14 1018.26 1018.26 1018.30 1018.26 1018.30 1018.26 1018.10 1017.98 1017.74
1016.54 1016.54 1016.50 1016.58 1016.74 1016.66 1016.74 1016.86 1016.66 1016.58 1016.66 1016.66 1016.66 1016.66 1016.70 1016.54 1016.18 1016.02 1016.30 1016.74 1016.86 1016.70 1016.62 1016.58 1016.54 1016.62 1016.54 1016.50 1016.62 1016.74 1016.86 1016.90 1017.06 1017.18 1017.10 1017.06 1017.38 1017.62 1017.46 1017.02 1016.78 1016.86 1017.06 1017.46 1017.70 1017.86 1018.02 1018.14 1018.14 1018.22 1018.38 1018.38 1018.38 1018.42 1018.42 1018.42 1018.42 1018.46 1018.58 1018.66 1018.50 1018.26 1018.02
1016.82 1016.82 1016.74 1016.74 1016.82 1016.98 1016.98 1017.14 1017.10 1017.02 1017.02 1017.02 1016.98 1016.90 1016.86 1016.70 1016.86 1016.50 1016.46 1016.94 1016.78 1016.86 1016.74 1016.74 1016.78 1016.78 1016.90 1017.02 1017.14 1017.26 1017.38 1017.34 1017.30 1017.22 1017.14 1017.22 1017.34 1017.26 1017.06 1016.98 1017.02 1017.18 1017.34 1017.58 1017.86 1018.06 1018.18 1018.26 1018.30 1018.42 1018.58 1018.70 1018.86 1018.82 1018.82 1018.74 1018.70 1018.58 1018.58 1018.66 1018.66 1018.50 1018.34
1017.06 1017.10 1017.06 1017.06 1017.06 1017.02 1017.10 1017.26 1017.38 1017.38 1017.42 1017.42 1017.38 1017.30 1017.14 1016.86 1016.74 1016.66 1016.90 1017.10 1016.94 1016.86 1016.90 1016.98 1017.02 1017.10 1017.26 1017.42 1017.58 1017.78 1017.94 1017.70 1017.66 1017.66 1017.66 1017.62 1017.50 1017.42 1017.34 1017.34 1017.34 1017.54 1017.74 1017.90 1018.18 1018.34 1018.50 1018.58 1018.54 1018.62 1018.74 1018.94 1019.14 1019.26 1019.22 1019.06 1019.06 1019.06 1018.94 1018.82 1018.74 1018.66 1018.50
1017.22 1017.14 1017.10 1017.06 1017.14 1017.18 1017.26 1017.30 1017.34 1017.34 1017.42 1017.38 1017.34 1017.34 1017.34 1017.22 1017.02 1017.22 1017.46 1017.30 1017.10 1017.06 1017.14 1017.22 1017.38 1017.54 1017.70 1017.82 1017.98 1018.10 1018.02 1018.02 1018.06 1018.06 1018.06 1018.02 1017.98 1017.90 1017.86 1017.74 1017.74 1017.90 1018.14 1018.30 1018.54 1018.70 1018.82 1018.94 1018.94 1019.02 1019.10 1019.22 1019.30 1019.42 1019.50 1019.50 1019.42 1019.46 1019.38 1019.22 1019.02 1018.86 1018.70
1017.42 1017.34 1017.26 1017.34 1017.30 1017.22 1017.34 1017.38 1017.50 1017.58 1017.58 1017.62 1017.50 1017.34 1017.34 1017.38 1017.42 1017.46 1017.34 1017.26 1017.18 1017.14 1017.22 1017.38 1017.58 1017.78 1017.86 1018.06 1018.18 1018.26 1018.18 1018.18 1018.30 1018.34 1018.34 1018.34 1018.30 1018.30 1018.34 1018.38 1018.42 1018.38 1018.54 1018.66 1018.70 1018.82 1018.90 1019.02 1019.14 1019.26 1019.34 1019.50 1019.58 1019.62 1019.66 1019.74 1019.82 1019.78 1019.70 1019.54 1019.34 1019.18 1018.94
1017.46 1017.54 1017.50 1017.38 1017.34 1017.34 1017.46 1017.50 1017.58 1017.70 1017.78 1017.94 1017.86 1017.70 1017.62 1017.58 1017.58 1017.50 1017.42 1017.38 1017.34 1017.34 1017.42 1017.62 1017.74 1017.86 1018.02 1018.14 1018.22 1018.30 1018.26 1018.30 1018.38 1018.54 1018.70 1019.02 1019.06 1018.98 1018.94 1019.06 1019.26 1019.22 1019.26 1019.26 1019.06 1018.94 1019.14 1019.18 1019.30 1019.42 1019.50 1019.62 1019.62 1019.70 1019.74 1019.94 1020.10 1020.22 1020.18 1020.06 1019.86 1019.62 1019.38
1017.54 1017.50 1017.58 1017.62 1017.70 1017.62 1017.62 1017.74 1017.86 1017.98 1018.06 1018.18 1018.18 1018.06 1018.02 1018.02 1017.94 1017.82 1017.74 1017.70 1017.66 1017.62 1017.78 1018.06 1018.26 1018.26 1018.30 1018.30 1018.30 1018.38 1018.38 1018.62 1018.78 1018.98 1019.14 1019.38 1019.74 1020.18 1020.38 1020.30 1020.06 1020.14 1020.22 1020.38 1020.46 1019.94 1019.38 1019.34 1019.54 1019.58 1019.66 1019.74 1019.82 1019.74 1019.78 1019.94 1020.10 1020.34 1020.74 1020.62 1020.58 1020.10 1019.54
1017.90 1017.90 1017.94 1017.90 1017.90 1017.98 1017.98 1017.98 1017.98 1018.14 1018.30 1018.42 1018.38 1018.22 1018.22 1018.22 1018.18 1018.14 1018.10 1018.02 1017.98 1017.90 1018.02 1018.22 1018.38 1018.54 1018.62 1018.58 1018.62 1018.66 1018.78 1018.94 1019.06 1019.22 1019.42 1019.42 1019.54 1019.86 1020.38 1020.90 1021.02 1020.94 1020.74 1020.70 1020.66 1020.54 1020.14 1019.74 1019.78 1019.86 1019.86 1019.94 1020.50 1020.38 1019.94 1020.06 1020.26 1020.58 1020.66 1020.54 1020.46 1020.46 1020.42
1018.06 1018.22 1018.26 1018.18 1018.18 1018.26 1018.26 1018.30 1018.26 1018.22 1018.30 1018.42 1018.46 1018.34 1018.34 1018.34 1018.34 1018.30 1018.30 1018.26 1018.26 1018.26 1018.38 1018.38 1018.50 1018.66 1018.78 1018.74 1018.82 1018.86 1018.94 1019.10 1019.30 1019.54 1019.66 1019.78 1019.78 1019.78 1019.82 1020.06 1020.62 1020.98 1021.18 1021.18 1021.18 1020.98 1020.70 1020.46 1020.34 1020.22 1020.14 1020.02 1020.18 1020.66 1020.62 1020.50 1020.58 1020.54 1020.50 1020.38 1020.26 1020.26 1020.14
1018.14 1018.18 1018.26 1018.34 1018.26 1018.34 1018.42 1018.46 1018.38 1018.30 1018.34 1018.46 1018.46 1018.42 1018.42 1018.42 1018.42 1018.46 1018.50 1018.46 1018.46 1018.50 1018.62 1018.62 1018.66 1018.82 1018.94 1018.90 1018.86 1018.90 1019.06 1019.26 1019.42 1019.66 1019.78 1019.98 1020.06 1019.98 1019.94 1020.02 1020.14 1020.38 1020.82 1020.94 1020.86 1020.90 1020.90 1020.86 1020.74 1020.66 1020.54 1020.50 1020.42 1020.30 1020.54 1020.74 1020.70 1020.58 1020.38 1020.18 1020.06 1019.90 1019.86
Wind_Speed
12 9 7 10 13 14 15 15 15 14 14 13 13 13 13 12 12 11 11 11 11 10 9 9 9 7 8 7 6 6 6 6 6 7 7 7 6 7 6 6 6 6 5 6 6 6 5 4 4 4 4 4 4 3 3 3 3 3 2 2 1 2 1
14 12 9 9 13 15 16 16 15 14 13 13 13 14 12 13 12 12 12 12 12 12 11 10 9 8 8 7 6 5 6 6 6 5 5 5 4 5 6 6 6 6 6 6 5 5 4 5 4 4 4 4 4 4 4 4 3 3 3 3 3 2 1
14 13 10 9 12 14 16 14 14 15 15 13 13 13 13 12 13 13 12 12 12 11 10 11 10 9 8 7 6 6 7 6 6 6 6 7 6 6 5 5 6 6 6 5 4 5 4 5 4 5 5 5 5 4 4 4 4 4 3 3 3 2 1
15 14 12 10 11 13 15 15 16 14 14 15 15 15 14 13 12 13 13 13 13 12 12 11 11 10 8 8 8 7 7 7 7 7 7 6 6 5 5 4 4 4 4 5 5 4 4 4 5 5 5 5 5 5 4 5 4 4 3 3 3 3 3
14 13 11 10 11 13 14 14 15 15 15 15 15 15 15 14 13 11 11 12 13 14 14 13 11 10 8 9 7 7 8 8 7 6 6 5 5 5 5 5 5 5 5 4 4 5 5 4 5 5 5 5 6 5 5 4 4 4 3 3 3 2 3
15 14 13 11 10 12 14 15 16 16 15 15 15 14 13 14 12 14 13 13 12 12 11 10 10 9 9 9 8 7 6 6 6 6 6 6 6 6 6 6 5 5 4 6 4 5 5 5 4 5 5 6 6 6 6 5 5 4 4 4 4 3 3
14 15 14 12 10 10 12 13 13 14 14 14 13 12 12 12 14 14 12 13 13 13 12 12 11 10 9 8 8 7 8 8 6 7 6 6 6 6 6 5 5 5 5 3 5 4 5 4 5 5 6 6 6 6 6 5 5 5 4 4 4 4 3
13 13 13 11 9 8 9 10 12 11 11 10 11 12 13 13 12 12 12 13 13 12 11 12 11 10 9 8 8 9 8 8 7 6 5 6 6 6 6 6 6 5 4 5 5 5 5 5 4 4 6 5 6 6 6 5 5 5 5 5 4 4 3
10 11 11 9 6 4 4 6 9 11 12 12 13 14 14 13 12 12 12 12 12 13 12 12 12 10 10 9 9 9 8 7 7 6 6 7 6 7 7 6 6 5 6 6 5 5 5 5 5 5 5 5 5 6 5 6 6 5 5 5 5 5 4
6 5 4 7 9 9 9 8 6 1 5 10 11 12 14 13 12 12 11 12 11 13 13 12 10 10 9 9 9 9 8 7 6 7 7 8 7 8 7 6 6 5 6 6 5 6 5 5 6 5 6 6 5 6 5 6 6 5 5 6 6 6 6
5 7 8 8 7 9 13 12 8 5 5 7 9 11 12 12 12 12 11 10 11 11 11 11 10 10 9 9 9 8 8 8 7 8 9 9 8 8 8 7 6 5 7 6 6 6 5 5 4 5 5 6 6 6 6 6 6 6 6 5 5 6 5
6 6 7 7 6 6 8 10 9 7 10 6 1 2 2 2 7 10 11 10 7 7 8 9 8 9 9 9 9 9 10 9 9 9 9 9 8 9 8 7 7 7 6 7 7 6 6 6 6 6 6 6 6 6 6 6 6 6 6 6 6 5 5
3 5 9 9 8 9 10 10 11 8 4 7 7 9 9 9 11 12 11 12 15 13 12 10 4 3 7 7 8 8 8 8 9 9 8 8 8 7 7 7 7 7 7 7 7 7 7 7 6 6 6 7 6 7 7 6 6 6 6 6 5 6 5
8 5 3 5 6 6 8 8 9 10 10 11 10 9 9 8 9 10 9 9 7 6 7 5 5 9 5 2 6 7 8 8 7 7 7 6 6 7 8 7 7 7 7 6 7 7 7 7 7 7 6 6 6 6 5 5 5 5 5 5 6 5 5
7 4 1 1 0 2 5 7 8 9 8 8 10 10 11 10 10 9 10 11 11 10 10 12 12 8 2 2 2 2 2 4 5 5 5 6 5 5 6 7 7 7 7 6 6 7 7 7 7 6 6 5 5 5 5 6 6 6 6 6 5 5 5
2 5 6 6 7 5 4 5 4 1 4 8 10 11 11 10 10 9 9 9 9 8 5 6 7 9 7 6 4 3 6 9 10 7 4 5 6 5 5 6 6 6 6 6 7 7 6 6 6 6 7 7 6 4 5 5 5 6 10 9 6 6 5
1 5 3 2 1 0 5 6 5 6 5 6 9 11 11 10 11 10 10 10 10 9 8 9 9 9 8 7 5 6 7 6 5 6 10 11 10 11 9 6 5 6 6 6 7 7 6 6 6 7 7 7 7 6 6 5 5 8 10 11 9 5 4
1 3 4 5 3 1 2 4 7 6 5 5 5 6 8 8 7 8 7 7 9 8 7 7 8 9 8 7 6 7 7 7 7 7 5 5 5 5 3 5 9 9 4 6 7 7 6 6 7 7 7 7 7 7 7 6 5 7 6 7 8 7 5
2 2 3 3 4 4 3 2 2 3 6 6 8 8 6 7 8 8 8 6 5 7 7 4 3 5 5 4 4 5 7 8 9 8 7 7 7 4 1 3 2 2 7 8 4 3 5 7 6 7 7 6 6 6 5 4 3 5 7 7 6 8 7
4 4 4 6 6 6 5 3 4 1 3 2 3 5 7 6 7 7 5 6 7 8 8 9 7 7 6 5 4 3 4 4 6 5 5 4 5 5 5 5 1 3 1 1 6 5 3 3 4 4 4 5 5 4 3 3 4 2 2 4 6 8 7
7 5 5 5 5 5 4 4 4 5 4 4 5 5 8 7 6 7 8 7 9 9 10 9 8 7 5 3 2 3 1 0 2 4 6 6 6 8 8 7 6 6 4 4 4 2 6 4 3 1 0 0 1 3 3 3 6 4 3 4 5 6 6
7 7 6 6 6 6 6 5 4 4 5 5 6 4 6 7 7 7 6 7 8 7 7 7 6 6 4 4 4 5 4 2 0 3 6 7 6 6 6 5 1 1 0 2 1 3 3 9 9 2 2 2 3 4 3 2 5 4 4 4 4 5 4
7 7 6 5 4 4 5 5 6 6 5 6 6 6 6 6 7 8 8 7 6 6 6 6 6 5 4 3 3 5 5 4 3 3 4 5 6 5 4 3 2 1 1 1 1 3 6 3 2 5 1 3 3 4 3 1 4 6 5 4 4 3 4
9 9 8 6 7 8 8 8 9 8 8 9 9 8 7 6 6 8 8 7 6 7 7 6 5 4 5 3 2 1 3 6 5 4 3 3 2 2 2 2 2 1 1 1 1 2 4 4 7 2 3 3 2 2 3 3 7 10 10 9 8 5 3
9 9 8 8 8 8 8 8 7 9 10 11 11 9 9 8 8 7 7 5 5 5 6 5 5 4 5 4 3 1 1 2 3 2 1 2 1 1 0 1 2 4 5 6 6 5 7 9 4 5 3 4 3 6 5 4 6 10 9 9 8 5 2
9 9 8 7 7 6 6 6 9 10 10 11 9 7 7 7 7 8 7 5 5 6 7 5 4 3 3 3 3 3 3 3 4 3 2 3 3 3 3 2 2 3 1 4 5 5 6 3 1 4 3 3 3 4 5 5 5 7 9 8 8 7 4
9 8 8 7 6 6 8 7 8 9 8 7 6 7 7 7 8 7 6 5 4 4 4 3 3 3 3 3 3 3 3 4 4 4 4 3 3 3 4 4 4 4 5 5 2 6 3 2 5 6 5 4 4 5 6 6 4 6 10 10 9 9 6
8 6 6 6 8 7 6 6 7 8 7 5 6 6 5 6 8 7 7 6 5 4 4 3 3 3 3 4 5 6 5 5 5 4 3 5 4 3 3 3 4 5 6 6 7 6 6 6 6 5 4 4 5 5 5 7 11 4 10 12 11 11 11
5 5 6 6 6 5 5 5 6 7 6 5 5 5 4 5 6 9 8 7 5 5 4 3 4 5 4 5 5 4 3 3 4 2 2 5 2 1 3 4 6 7 6 6 7 6 6 5 4 4 4 5 5 5 5 6 6 9 7 10 11 11 11
3 4 6 5 5 5 5 6 5 6 6 4 3 2 2 5 4 6 10 5 5 4 3 4 4 4 5 6 6 6 4 4 4 4 4 4 3 4 6 7 7 7 6 6 5 5 5 4 3 4 5 6 5 5 5 5 5 7 10 9 11 10 11
3 4 5 5 5 4 5 6 7 6 6 5 4 3 3 3 7 8 7 2 2 3 3 3 4 4 5 6 6 5 4 5 6 6 5 5 4 5 5 6 6 7 6 6 5 5 5 4 4 4 4 4 5 4 4 5 6 6 8 10 10 11 11
4 4 5 5 5 5 5 5 6 7 7 6 5 5 4 4 5 7 2 1 2 2 2 3 3 3 4 5 4 3 3 6 6 6 7 6 6 6 5 5 5 6 5 6 5 4 4 4 4 4 4 4 4 4 4 4 4 5 5 6 7 7 9
4 4 5 5 4 4 5 5 6 6 6 6 4 5 5 5 5 4 3 4 4 4 4 4 4 4 4 5 4 3 4 6 4 5 6 6 5 6 6 6 5 5 4 4 5 4 4 4 4 3 3 3 3 3 4 5 5 5 5 6 5 5 6
5 4 3 4 4 5 5 5 5 5 5 5 4 4 5 5 5 5 5 5 5 4 5 5 4 4 4 4 4 3 4 5 7 7 5 6 6 6 6 6 6 5 5 4 2 5 4 4 4 3 3 3 2 2 4 4 4 4 4 5 4 4 4
4 5 5 4 2 3 6 5 5 4 4 3 2 3 4 4 4 4 5 4 3 4 5 4 3 4 4 4 4 4 4 4 4 5 5 5 6 6 5 5 5 5 4 4 4 5 1 5 4 3 2 3 2 2 3 3 3 2 2 2 3 3 3
4 4 3 2 2 2 2 3 5 5 4 2 1 3 3 3 3 3 3 3 3 3 4 3 3 4 3 3 4 4 4 3 4 3 4 4 5 5 6 8 9 6 4 4 10 10 8 5 2 2 3 5 3 1 3 3 1 1 1 3 4 4 5
6 4 4 3 4 2 2 1 2 4 4 2 2 3 3 3 2 3 3 4 3 4 4 4 3 3 3 3 3 3 4 4 5 4 4 4 4 5 6 4 5 8 10 9 7 8 10 11 10 9 6 4 3 2 4 4 3 1 3 3 4 5 6
4 4 4 3 4 4 3 2 1 2 2 0 1 2 1 1 1 1 3 3 3 4 4 3 4 3 2 2 2 3 3 3 4 4 4 4 3 4 5 5 6 6 8 8 8 7 8 9 9 9 9 9 6 2 1 3 2 1 3 4 5 7 8
Wind_Direction
192 184 182 180 182 186 186 184 181 181 179 179 180 180 180 177 176 175 177 178 182 178 181 181 186 184 186 184 182 181 180 178 181 182 184 188 188 181 180 186 185 191 188 190 201 198 208 211 211 211 210 210 221 229 226 229 226 214 212 196 205 225 206
197 191 182 184 185 188 188 185 182 181 181 181 180 180 180 180 177 179 180 180 183 181 181 184 185 189 187 185 178 181 183 185 184 189 185 187 190 190 187 183 187 191 191 197 193 204 200 215 204 213 215 216 223 223 219 220 219 213 213 194 193 249 265
199 193 182 184 190 189 188 184 184 184 182 182 181 180 183 182 181 181 178 179 183 184 182 185 188 187 186 180 177 190 193 186 185 187 188 191 193 192 193 187 192 189 196 192 190 198 200 209 209 211 211 216 223 220 216 216 217 211 213 206 207 216 238
196 195 185 183 190 189 187 185 185 185 184 183 181 182 184 185 184 183 179 180 182 183 185 189 186 186 184 181 186 188 194 197 194 192 193 190 191 187 184 195 194 194 190 199 200 200 206 200 205 209 212 212 219 217 211 216 215 211 213 204 218 222 224
195 194 182 180 189 187 187 188 187 185 186 186 184 183 184 184 183 182 183 183 183 186 189 187 186 185 185 184 187 190 194 194 199 198 194 191 186 179 188 195 193 195 201 199 202 205 210 205 204 204 212 210 216 209 209 212 217 212 210 202 219 221 229
190 194 191 182 187 189 188 189 188 186 185 184 184 185 185 183 182 185 184 183 188 189 186 184 186 183 186 189 188 190 190 197 199 196 194 190 182 187 196 200 194 200 201 209 202 208 209 206 202 203 207 208 209 207 207 206 219 212 209 201 210 216 225
190 192 193 186 183 186 188 188 190 189 186 186 183 183 181 182 185 188 183 185 187 186 185 186 187 183 189 183 191 187 191 195 195 201 197 194 192 194 201 202 201 202 211 200 210 206 210 209 210 204 205 202 202 203 202 206 217 215 207 203 215 223 221
188 191 194 187 177 178 186 187 189 189 186 182 179 182 183 185 185 186 187 186 184 185 186 187 188 186 184 185 188 191 194 196 194 196 195 199 198 204 204 207 207 207 203 209 218 199 207 210 211 203 201 197 201 202 201 205 213 214 203 210 217 224 213
191 191 188 180 154 159 170 190 188 187 182 184 185 185 184 184 185 186 190 186 183 183 189 188 188 185 180 184 187 192 192 192 193 194 197 202 205 208 208 208 211 204 207 216 221 209 206 206 206 200 196 198 198 198 201 204 209 210 204 212 212 219 219
183 158 109 89 84 83 63 27 25 20 213 191 188 186 186 185 186 188 187 186 183 188 187 184 186 184 181 182 189 189 186 190 194 196 200 206 209 213 212 208 207 200 209 219 221 219 218 210 209 202 197 199 198 197 201 200 206 206 208 210 210 213 219
118 125 128 121 121 135 145 155 168 183 226 220 196 189 187 185 186 186 186 183 189 193 186 183 180 181 184 181 184 187 189 193 194 201 205 208 209 215 213 212 208 199 208 213 219 223 218 221 211 208 204 207 205 202 202 203 202 205 212 217 212 213 215
137 138 103 80 82 107 147 172 182 184 196 190 145 30 350 264 206 190 178 180 188 196 188 185 175 180 179 182 185 189 193 197 198 205 208 211 213 215 215 214 212 207 209 208 216 218 216 215 211 207 209 212 212 207 207 205 204 206 212 214 211 212 217
79 93 107 123 150 156 153 167 179 183 152 88 103 111 103 82 50 33 30 45 47 38 22 8 338 194 181 184 188 189 198 198 201 200 204 210 216 221 221 219 217 214 215 209 212 212 215 218 216 218 211 213 209 211 209 209 207 208 211 213 207 205 208
35 37 94 175 187 158 151 156 159 165 162 149 144 135 128 125 125 120 116 104 97 103 121 119 36 359 333 235 192 195 198 200 199 199 203 206 212 217 221 222 219 218 219 212 213 214 215 215 217 222 218 220 214 217 210 207 209 209 209 207 206 202 207
110 105 70 32 315 221 157 159 166 167 159 143 137 138 141 143 143 144 147 153 154 158 165 163 161 166 162 354 311 273 241 213 206 206 209 210 216 231 230 225 225 222 219 213 216 217 217 217 215 213 220 225 222 221 212 206 211 208 205 205 210 203 206
147 215 197 184 189 184 147 134 109 67 114 145 156 155 153 151 155 158 153 150 154 158 150 130 149 162 177 165 143 95 43 14 352 328 284 243 227 230 229 230 229 226 221 220 220 219 217 214 209 206 211 216 218 217 212 215 214 213 209 207 202 202 208
224 267 316 344 327 13 123 131 134 133 159 180 169 170 160 162 162 158 150 156 159 157 154 149 157 166 174 187 169 145 125 106 86 41 13 357 8 15 351 319 268 226 223 225 221 221 219 206 207 209 210 208 210 209 212 213 212 208 205 207 210 201 199
56 352 0 358 336 333 48 129 154 144 166 173 168 156 144 142 141 136 151 158 158 151 141 145 152 158 167 169 158 144 138 143 150 143 134 83 37 351 353 27 2 326 278 227 223 226 214 209 209 210 208 209 207 207 206 206 177 168 181 183 193 186 171
71 46 31 11 352 19 48 121 48 139 195 179 163 150 146 145 148 157 160 160 139 125 119 112 122 137 142 134 136 144 154 164 168 165 154 148 165 202 239 125 98 350 338 324 299 232 207 215 209 211 208 204 203 206 203 171 122 157 154 169 187 188 166
55 39 30 41 32 41 27 75 134 145 334 29 59 82 94 103 122 121 115 117 109 96 90 84 61 47 38 38 63 108 142 160 155 128 113 125 108 76 332 318 258 198 195 334 328 303 246 222 211 210 206 208 203 196 144 111 41 46 155 188 198 204 186
35 37 54 47 49 41 33 33 92 119 96 46 53 83 99 97 101 111 111 108 101 101 100 101 105 94 83 88 64 80 67 25 73 135 143 151 163 161 189 195 198 214 212 177 185 287 316 277 204 191 118 46 101 109 79 52 17 355 331 294 253 235 216
33 40 40 26 14 5 16 28 71 125 124 104 90 80 99 104 113 106 98 100 106 105 101 100 97 102 119 105 97 86 63 22 243 185 173 177 179 182 187 184 180 282 158 251 281 85 52 341 337 5 74 84 99 107 94 58 19 355 338 330 309 284 241
46 44 47 42 31 31 30 43 64 67 69 69 82 95 91 100 100 97 96 88 82 91 101 99 96 96 84 83 89 109 114 136 169 186 192 176 174 188 181 136 118 98 28 330 343 77 77 80 274 285 24 79 86 112 119 90 12 1 355 347 347 301 250
55 45 33 40 50 54 49 50 57 56 58 61 46 43 60 72 84 98 95 97 104 104 106 117 129 128 111 92 69 49 126 135 155 161 160 138 156 177 197 167 157 151 125 59 325 123 127 173 228 203 54 75 89 111 103 73 30 18 6 3 355 321 285
70 63 49 42 39 47 49 57 62 67 64 64 66 59 63 69 75 79 78 80 87 102 113 115 115 110 113 123 132 90 58 78 86 86 70 68 85 130 135 124 144 176 184 189 184 164 179 205 194 72 55 50 69 87 87 67 38 26 19 17 10 354 316
54 57 56 62 69 72 59 43 51 50 61 72 70 63 69 74 75 77 73 64 86 100 103 98 101 115 121 129 121 115 89 74 76 73 46 28 30 19 32 43 69 53 64 114 146 170 220 223 112 109 71 52 55 54 64 66 46 25 24 29 25 7 333
58 58 60 39 41 59 68 62 67 66 49 31 44 59 60 64 71 70 68 68 72 78 70 81 91 91 101 92 82 62 56 64 69 76 70 45 29 25 25 25 37 61 64 54 82 173 195 80 71 77 60 38 41 60 64 75 67 37 29 24 25 23 22
59 53 64 70 59 43 50 65 76 73 58 43 58 52 54 81 84 71 71 66 54 30 29 64 87 98 94 75 64 59 48 48 46 34 50 54 37 15 31 29 45 61 74 88 97 96 80 71 77 84 85 60 49 47 52 64 63 49 36 31 33 38 44
82 87 88 87 73 61 64 62 59 64 68 47 41 62 64 46 71 86 71 56 25 3 8 41 58 65 59 74 77 80 83 79 97 82 64 82 80 113 77 58 58 55 65 81 93 100 99 100 105 95 83 69 57 40 36 36 49 51 52 44 45 44 52
90 87 82 77 88 100 91 83 67 68 59 53 47 33 45 82 63 62 70 36 353 349 13 38 46 65 63 53 47 45 46 64 63 57 52 59 66 56 55 53 58 56 58 63 68 73 73 58 72 76 74 66 57 44 34 30 33 35 42 48 43 41 46
97 100 96 96 98 99 98 103 103 94 83 76 71 48 58 75 82 70 67 12 6 33 37 40 52 62 67 69 59 53 39 48 46 42 38 28 32 48 52 60 56 62 45 65 66 69 81 67 62 59 62 65 70 64 42 28 35 27 22 32 43 38 36
86 82 79 84 81 83 89 85 77 81 80 66 64 72 62 46 67 78 65 10 47 65 82 82 76 77 85 88 87 82 82 76 63 54 44 42 34 38 34 50 65 76 67 69 75 72 80 85 78 78 72 62 46 46 40 33 33 31 23 18 24 28 23
96 98 106 94 89 80 70 74 74 72 72 60 30 54 50 57 53 69 62 49 40 54 63 70 74 73 77 100 101 89 81 82 73 62 50 44 42 41 36 26 37 59 60 72 86 100 104 98 99 99 85 77 59 58 50 36 30 19 14 11 8 10 6
121 102 97 113 110 104 94 87 92 83 73 64 39 50 51 48 42 35 41 34 39 46 59 63 70 81 96 113 115 101 94 87 78 70 48 41 38 35 28 32 25 36 38 23 49 101 100 92 108 106 109 103 86 75 67 54 41 24 8 359 360 350 343
133 135 137 122 123 116 125 127 112 107 101 96 46 61 63 54 41 36 42 35 36 59 66 68 73 88 102 111 109 103 90 80 87 86 80 74 61 56 45 21 11 22 22 23 348 333 76 124 110 117 109 98 65 69 81 50 41 21 328 345 350 346 333
124 119 104 80 65 66 92 107 124 125 121 122 76 82 74 57 44 40 43 49 45 73 90 88 81 81 91 99 102 104 101 94 94 92 93 90 89 87 73 70 74 46 44 21 9 13 8 30 99 121 126 98 59 18 93 113 149 231 279 275 279 293 309
128 121 119 124 110 83 94 94 100 109 119 144 137 120 119 96 72 72 59 67 64 81 90 93 91 85 85 100 106 115 117 114 102 90 91 92 99 91 95 81 62 70 64 55 47 26 28 51 55 53 50 94 123 56 67 98 117 223 271 292 305 319 328
107 127 135 140 141 145 132 117 125 131 151 198 83 94 81 78 13 60 72 77 84 87 80 80 98 103 93 94 102 103 96 95 111 112 111 94 91 105 107 101 85 51 35 49 46 37 43 44 46 47 52 39 38 92 134 154 154 315 318 318 333 336 341